GW4047 Weather Reports


time (UTC)temp
F
wind
direction
speed
knots
gust
knots
rain 1hr
in
rain 24hr
in
rain mn
in
humidity
%
barometer
mb
20260506114210 65 54 2.6 7.8 0.00 0.00 0.00 72 1009.4
20260506113708 65 51 0.0 5.2 0.00 0.00 0.00 73 1009.4
20260506113205 65 36 1.7 7.0 0.00 0.00 0.00 72 1009.4
20260506112701 65 106 2.6 6.1 0.00 0.00 0.00 72 1009.4
20260506112159 65 62 1.7 9.6 0.00 0.00 0.00 71 1009.4
20260506111656 64 101 3.5 7.0 0.00 0.00 0.00 73 1009.2
20260506111154 63 54 1.7 2.6 0.00 0.00 0.00 74 1009.2
20260506110651 63 96 1.7 2.6 0.00 0.00 0.00 75 1009.2
20260506110149 63 65 3.5 3.5 0.00 0.00 0.00 74 1009.1
20260506105645 63 66 0.9 1.7 0.00 0.00 0.00 73 1008.9
20260506105142 64 86 0.9 1.7 0.00 0.00 0.00 73 1009.1
20260506104640 64 42 0.0 1.7 0.00 0.00 0.00 72 1009.1
20260506104137 64 52 0.0 2.6 0.00 0.00 0.00 73 1009.0
20260506103634 64 233 0.9 1.7 0.00 0.00 0.00 71 1009.0
20260506103131 64 142 0.0 1.7 0.00 0.00 0.00 70 1008.6
20260506102629 64 69 1.7 2.6 0.00 0.00 0.00 70 1008.6
20260506102126 64 121 0.9 2.6 0.00 0.00 0.00 69 1008.6
20260506101623 64 69 1.7 2.6 0.00 0.00 0.00 69 1008.6
20260506101120 64 53 1.7 3.5 0.00 0.00 0.00 69 1008.6
20260506100618 64 128 0.0 2.6 0.00 0.00 0.00 70 1008.6
20260506100116 64 168 0.0 5.2 0.00 0.00 0.00 69 1008.5
20260506095615 62 126 0.0 1.7 0.00 0.00 0.00 71 1008.6
20260506095111 62 126 0.9 2.6 0.00 0.00 0.00 71 1008.6
20260506094608 61 105 0.9 1.7 0.00 0.00 0.00 74 1008.7
20260506094106 61 117 0.0 1.7 0.00 0.00 0.00 74 1008.9
20260506093604 61 72 0.9 2.6 0.00 0.00 0.00 76 1008.8
20260506093101 61 82 0.9 2.6 0.00 0.00 0.00 75 1008.8
20260506092559 61 211 0.9 2.6 0.00 0.00 0.00 74 1008.8
20260506092055 61 117 1.7 4.3 0.00 0.00 0.00 76 1008.6
20260506091554 60 155 0.0 3.5 0.00 0.00 0.00 79 1008.8
20260506091051 60 203 0.0 2.6 0.00 0.00 0.00 79 1008.8
20260506090549 59 354 0.9 1.7 0.00 0.00 0.00 82 1008.9
20260506090045 59 105 1.7 2.6 0.00 0.00 0.00 82 1008.9
20260506085542 59 78 0.9 1.7 0.00 0.00 0.00 81 1009.0
20260506085038 59 104 0.0 1.7 0.00 0.00 0.00 80 1008.8
20260506084535 60 114 0.9 2.6 0.00 0.00 0.00 79 1008.8
20260506084031 59 168 1.7 3.5 0.00 0.00 0.00 77 1009.0
20260506083529 59 75 0.9 1.7 0.00 0.00 0.00 78 1008.8
20260506083026 59 96 2.6 2.6 0.00 0.00 0.00 78 1009.1
20260506082523 59 155 0.0 1.7 0.00 0.00 0.00 78 1009.1
20260506082018 60 54 0.0 1.7 0.00 0.00 0.00 78 1008.9
20260506081517 60 132 0.0 2.6 0.00 0.00 0.00 76 1008.9
20260506081014 60 206 1.7 3.5 0.00 0.00 0.00 73 1008.9
20260506080511 60 81 1.7 2.6 0.00 0.00 0.00 75 1008.9
20260506073455 59 106 0.0 1.7 0.00 0.00 0.00 79 1008.8
20260506072952 60 110 1.7 2.6 0.00 0.00 0.00 79 1008.9
20260506072449 60 50 0.0 2.6 0.00 0.00 0.00 75 1009.1
20260506071947 60 75 0.9 2.6 0.00 0.00 0.00 77 1009.0
20260506071445 60 157 0.0 0.9 0.00 0.00 0.00 79 1009.0
20260506070941 60 65 0.0 1.7 0.00 0.00 0.00 77 1009.2
20260506070438 60 37 0.0 1.7 0.00 0.00 0.00 75 1009.5
20260506062416 60 138 0.0 1.7 0.00 0.00 0.00 68 1009.5
20260506061911 59 140 0.0 0.9 0.00 0.00 0.00 71 1009.5
20260506061408 59 88 0.9 1.7 0.00 0.00 0.00 73 1009.6
20260506060906 60 127 0.0 1.7 0.00 0.00 0.00 74 1009.7
20260506060404 59 91 0.9 2.6 0.00 0.00 0.00 74 1009.7
20260506051336 57 121 0.0 1.7 0.00 0.00 0.00 79 1010.1
20260506050833 57 80 0.9 2.6 0.00 0.00 0.00 79 1010.4
20260506050331 57 86 3.5 3.5 0.00 0.00 0.00 83 1010.4
20260506044821 56 128 0.9 2.6 0.00 0.00 0.00 85 1010.2
20260506044319 57 153 1.7 2.6 0.00 0.00 0.00 84 1010.2
20260506043816 57 198 1.7 3.5 0.00 0.00 0.00 85 1010.2
20260506043313 57 176 1.7 2.6 0.00 0.00 0.00 84 1009.9
20260506042812 57 151 1.7 1.7 0.00 0.00 0.00 84 1010.2
20260506042310 57 80 0.0 1.7 0.00 0.00 0.00 84 1010.3
20260506041809 58 34 0.0 1.7 0.00 0.00 0.00 84 1010.4
20260506041305 58 174 2.6 2.6 0.00 0.00 0.00 82 1010.4
20260506040802 58 180 1.7 2.6 0.00 0.00 0.00 82 1010.4
20260506040259 58 188 0.0 2.6 0.00 0.00 0.00 82 1010.4
20260506035756 58 44 0.0 2.6 0.00 0.00 0.00 82 1010.4
20260506035253 58 155 1.7 3.5 0.00 0.00 0.00 84 1010.7
20260506034750 58 174 0.9 2.6 0.00 0.00 0.00 83 1010.4
20260506034247 58 87 0.9 2.6 0.00 0.00 0.00 83 1010.4
20260506033744 59 108 0.9 2.6 0.00 0.00 0.00 83 1010.3
20260506033241 59 85 1.7 2.6 0.00 0.00 0.00 82 1010.5
20260506032738 59 121 0.0 3.5 0.00 0.00 0.00 82 1010.4
20260506032235 58 134 2.6 3.5 0.00 0.00 0.00 83 1010.5
20260506031726 58 126 1.7 2.6 0.00 0.00 0.00 83 1010.2
20260506031224 59 122 1.7 3.5 0.00 0.00 0.00 82 1010.3
20260506030722 59 136 1.7 3.5 0.00 0.00 0.00 82 1010.3
20260506030219 59 161 1.7 3.5 0.00 0.00 0.00 82 1010.4
20260506025716 59 111 0.9 2.6 0.00 0.00 0.00 82 1010.4
20260506025212 59 153 0.9 4.3 0.00 0.00 0.00 82 1010.5
20260506024709 59 91 0.9 4.3 0.00 0.00 0.00 81 1010.3
20260506024205 60 114 2.6 2.6 0.00 0.00 0.00 80 1010.3
20260506023702 60 130 2.6 3.5 0.00 0.00 0.00 80 1010.4
20260506023159 60 188 0.9 3.5 0.00 0.00 0.00 79 1010.6
20260506022656 61 114 1.7 3.5 0.00 0.00 0.00 77 1010.2
20260506022154 61 133 2.6 3.5 0.00 0.00 0.00 77 1010.5
20260506021651 62 118 0.0 1.7 0.00 0.00 0.00 76 1010.6
20260506021148 62 181 1.7 2.6 0.00 0.00 0.00 75 1010.5
20260506020645 63 133 1.7 2.6 0.00 0.00 0.00 73 1010.5
20260506020143 64 193 1.7 2.6 0.00 0.00 0.00 71 1010.4
20260506015640 64 107 0.9 1.7 0.00 0.00 0.00 71 1010.5
20260506015137 64 153 0.9 1.7 0.00 0.00 0.00 71 1010.4
20260506014635 64 126 1.7 2.6 0.00 0.00 0.00 72 1010.3
20260506014130 64 118 1.7 2.6 0.00 0.00 0.00 72 1010.2
20260506013628 65 153 1.7 2.6 0.00 0.00 0.00 70 1010.3
20260506013125 65 103 0.9 2.6 0.00 0.00 0.00 68 1010.1
20260506012621 65 124 0.0 1.7 0.00 0.00 0.00 68 1010.2
20260506012117 66 166 0.0 1.7 0.00 0.00 0.00 67 1010.1
20260506011610 66 66 0.0 1.7 0.00 0.00 0.00 67 1010.1
20260506011106 66 193 0.0 1.7 0.00 0.00 0.00 66 1009.7
20260506010605 67 103 0.0 1.7 0.00 0.00 0.00 64 1009.8
20260506005559 68 96 0.9 2.6 0.00 0.00 0.00 63 1009.5
20260506005055 68 155 0.9 2.6 0.00 0.00 0.00 60 1009.5
20260506004552 69 100 0.9 1.7 0.00 0.00 0.00 58 1009.4
20260506004048 69 203 0.0 0.9 0.00 0.00 0.00 59 1009.3
20260506003545 69 82 2.6 3.5 0.00 0.00 0.00 58 1009.5
20260506003041 70 109 1.7 1.7 0.00 0.00 0.00 57 1009.3
20260506002537 70 117 0.9 1.7 0.00 0.00 0.00 56 1009.3
20260506002033 71 84 0.0 0.9 0.00 0.00 0.00 54 1009.1
20260506001530 72 204 0.9 2.6 0.00 0.00 0.00 53 1009.3
20260506001027 72 199 0.0 1.7 0.00 0.00 0.00 52 1009.1
20260506000525 73 219 0.9 3.5 0.00 0.00 0.00 51 1009.2
20260506000022 73 139 0.0 2.6 0.00 0.00 0.00 50 1009.2
20260505235520 74 228 1.7 2.6 0.00 0.00 0.00 50 1009.2
20260505235016 74 87 0.9 4.3 0.00 0.00 0.00 49 1008.9
20260505234513 75 160 0.0 3.5 0.00 0.00 0.00 48 1008.9
20260505234010 75 73 1.7 3.5 0.00 0.00 0.00 47 1008.9
20260505233508 75 122 4.3 6.1 0.00 0.00 0.00 47 1009.0
20260505233005 74 104 3.5 4.3 0.00 0.00 0.00 49 1008.8
20260505232503 75 121 0.0 7.0 0.00 0.00 0.00 49 1008.8
20260505232000 75 17 0.9 4.3 0.00 0.00 0.00 50 1008.7
20260505231457 75 226 0.0 7.0 0.00 0.00 0.00 48 1008.9
20260505230955 75 153 1.7 4.3 0.00 0.00 0.00 48 1008.8
20260505230452 75 196 2.6 3.5 0.00 0.00 0.00 47 1008.7
20260505225948 75 79 0.9 6.1 0.00 0.00 0.00 47 1008.6
20260505225446 75 172 0.9 6.1 0.00 0.00 0.00 48 1008.5
20260505224942 75 322 0.9 7.8 0.00 0.00 0.00 47 1008.6
20260505224439 75 156 2.6 6.1 0.00 0.00 0.00 46 1008.7
20260505223936 76 113 0.9 4.3 0.00 0.00 0.00 46 1008.8
20260505223433 76 122 2.6 6.1 0.00 0.00 0.00 46 1008.6
20260505222929 76 143 5.2 10.4 0.00 0.00 0.00 45 1008.6
20260505222425 76 130 1.7 5.2 0.00 0.00 0.00 45 1008.4
20260505221921 76 156 3.5 8.7 0.00 0.00 0.00 45 1008.5
20260505221419 77 128 2.6 6.1 0.00 0.00 0.00 45 1008.3
20260505220916 76 120 5.2 9.6 0.00 0.00 0.00 45 1008.4
20260505220413 76 117 1.7 3.5 0.00 0.00 0.00 45 1008.4
20260505215910 76 115 7.0 8.7 0.00 0.00 0.00 45 1008.3
20260505215408 76 261 0.9 4.3 0.00 0.00 0.00 44 1008.3
20260505214906 76 108 3.5 4.3 0.00 0.00 0.00 46 1008.3
20260505214403 76 167 1.7 6.1 0.00 0.00 0.00 45 1008.4
20260505213900 76 76 2.6 6.1 0.00 0.00 0.00 46 1008.4
20260505213358 77 299 0.9 9.6 0.00 0.00 0.00 45 1008.4
20260505212854 77 136 2.6 16.5 0.00 0.00 0.00 44 1008.3
20260505212351 77 137 7.8 20.9 0.00 0.00 0.00 43 1008.5
20260505211847 77 100 1.7 9.6 0.00 0.00 0.00 43 1008.5
20260505211345 78 87 1.7 14.8 0.00 0.00 0.00 41 1008.4
20260505210841 78 127 3.5 13.0 0.00 0.00 0.00 42 1008.4
20260505210339 78 123 6.1 13.0 0.00 0.00 0.00 41 1008.1
20260505205835 78 128 6.1 10.4 0.00 0.00 0.00 41 1008.1
20260505205334 78 113 7.8 16.5 0.00 0.00 0.00 41 1008.1
20260505204830 78 86 5.2 11.3 0.00 0.00 0.00 41 1008.1
20260505204328 78 117 6.1 9.6 0.00 0.00 0.00 41 1008.0
20260505203825 78 115 4.3 18.2 0.00 0.00 0.00 40 1008.2
20260505203321 78 113 5.2 13.0 0.00 0.00 0.00 41 1008.1
20260505202818 78 134 7.0 13.9 0.00 0.00 0.00 40 1008.1
20260505202314 79 224 3.5 17.4 0.00 0.00 0.00 40 1008.0
20260505201811 79 158 7.0 11.3 0.00 0.00 0.00 40 1007.8
20260505201308 79 131 7.0 12.2 0.00 0.00 0.00 40 1007.8
20260505200807 79 288 4.3 14.8 0.00 0.00 0.00 40 1007.9
20260505200303 80 72 2.6 13.9 0.00 0.00 0.00 40 1007.9
20260505195758 80 58 10.4 14.8 0.00 0.00 0.00 40 1007.9
20260505195256 80 74 33.0 33.0 0.00 0.00 0.00 39 1008.0
20260505194753 80 113 5.2 14.8 0.00 0.00 0.00 39 1007.9
20260505194250 80 110 3.5 13.0 0.00 0.00 0.00 40 1007.9
20260505193745 80 85 3.5 19.1 0.00 0.00 0.00 39 1008.0
20260505193243 82 132 4.3 20.0 0.00 0.00 0.00 38 1008.0
20260505192741 82 105 3.5 13.0 0.00 0.00 0.00 39 1007.9
20260505192239 82 82 9.6 22.6 0.00 0.00 0.00 39 1008.0
20260505191737 82 24 1.7 11.3 0.00 0.00 0.00 39 1008.1
20260505191235 82 87 9.6 21.7 0.00 0.00 0.00 39 1008.1
20260505190731 81 106 4.3 20.9 0.00 0.00 0.00 39 1008.4
20260505190231 81 125 4.3 20.0 0.00 0.00 0.00 39 1008.4
20260505185728 81 115 7.8 26.1 0.00 0.00 0.00 38 1008.5
20260505185224 80 92 5.2 19.1 0.00 0.00 0.00 40 1008.7
20260505184720 80 163 4.3 22.6 0.00 0.00 0.00 41 1008.7
20260505184218 82 89 8.7 10.4 0.00 0.00 0.00 40 1008.7
20260505183714 82 107 6.1 15.6 0.00 0.00 0.00 39 1008.9
20260505183212 82 121 3.5 13.0 0.00 0.00 0.00 38 1008.8
20260505182708 81 96 4.3 18.2 0.00 0.00 0.00 39 1008.9
20260505182205 82 94 7.0 15.6 0.00 0.00 0.00 39 1009.2
20260505181701 82 303 9.6 15.6 0.00 0.00 0.00 39 1009.2
20260505181159 81 107 3.5 17.4 0.00 0.00 0.00 39 1009.2
20260505180655 81 134 6.1 17.4 0.00 0.00 0.00 37 1009.3
20260505180153 80 116 6.1 14.8 0.00 0.00 0.00 39 1009.3
20260505175648 81 114 4.3 20.9 0.00 0.00 0.00 40 1009.7
20260505175145 81 114 8.7 12.2 0.00 0.00 0.00 41 1009.5
20260505174642 82 111 8.7 15.6 0.00 0.00 0.00 42 1009.3
20260505174138 82 254 1.7 18.2 0.00 0.00 0.00 42 1009.4
20260505173635 81 154 2.6 13.0 0.00 0.00 0.00 43 1009.6
20260505173131 81 95 13.0 13.0 0.00 0.00 0.00 42 1009.6
20260505172629 81 291 2.6 15.6 0.00 0.00 0.00 44 1009.6
20260505172126 80 75 11.3 12.2 0.00 0.00 0.00 44 1009.2
20260505171620 80 60 6.1 11.3 0.00 0.00 0.00 45 1009.4
20260505171118 79 197 4.3 13.0 0.00 0.00 0.00 45 1009.5
20260505170615 79 214 2.6 11.3 0.00 0.00 0.00 45 1009.7
20260505170111 79 130 4.3 11.3 0.00 0.00 0.00 45 1009.9
20260505165606 79 246 21.7 21.7 0.00 0.00 0.00 45 1009.9
20260505165102 78 176 2.6 17.4 0.00 0.00 0.00 46 1009.8
20260505164558 79 185 11.3 14.8 0.00 0.00 0.00 45 1009.9
20260505164056 78 41 2.6 19.1 0.00 0.00 0.00 46 1010.1
20260505163554 79 219 14.8 20.9 0.00 0.00 0.00 45 1010.1
20260505163051 79 122 1.7 13.9 0.00 0.00 0.00 47 1009.9
20260505162544 78 224 8.7 19.1 0.00 0.00 0.00 46 1010.3
20260505162041 78 170 12.2 19.1 0.00 0.00 0.00 47 1010.2
20260505161538 78 112 8.7 17.4 0.00 0.00 0.00 46 1010.2
20260505161035 78 222 5.2 13.9 0.00 0.00 0.00 47 1010.3
20260505160533 79 190 7.8 20.9 0.00 0.00 0.00 45 1010.2
20260505153004 77 227 5.2 20.0 0.00 0.00 0.00 48 1010.7
20260505152501 77 181 4.3 13.9 0.00 0.00 0.00 48 1010.7
20260505151955 77 167 6.1 12.2 0.00 0.00 0.00 49 1010.7
20260505151445 76 165 22.6 22.6 0.00 0.00 0.00 50 1010.8
20260505150942 76 171 1.7 13.9 0.00 0.00 0.00 51 1010.6
20260505150434 76 271 6.1 10.4 0.00 0.00 0.00 51 1010.8
20260505140352 73 202 2.6 11.3 0.00 0.00 0.00 55 1011.1
20260505124806 67 171 1.7 6.1 0.00 0.00 0.00 62 1011.6
20260505124303 67 341 2.6 10.4 0.00 0.00 0.00 63 1011.7
20260505123758 67 71 2.6 6.1 0.00 0.00 0.00 66 1011.6
20260505123255 65 116 1.7 5.2 0.00 0.00 0.00 65 1011.7
20260505122751 64 41 2.6 5.2 0.00 0.00 0.00 69 1011.7
20260505122249 66 159 3.5 6.1 0.00 0.00 0.00 67 1011.6
20260505121745 65 217 1.7 7.8 0.00 0.00 0.00 67 1011.8
20260505121242 65 340 1.7 6.1 0.00 0.00 0.00 68 1011.7
20260505120738 64 84 0.9 4.3 0.00 0.00 0.00 72 1011.8
20260505120235 64 156 1.7 5.2 0.00 0.00 0.00 72 1011.8
20260505115733 63 54 0.9 4.3 0.00 0.00 0.00 75 1011.6
20260505115231 62 24 1.7 4.3 0.00 0.00 0.00 79 1011.5
20260505114728 60 63 0.9 1.7 0.00 0.00 0.00 85 1011.4